Location: Strawberry
(45.6646°N, 111.9596°W)
Time: 17:09:46
(UTC+00:00)

SR - Pass Details

Date: 05 October 2022
Orbit: 577 x 874 km, 66.7° (Epoch: 05 December)

Event Time Altitude Azimuth Distance (km) Brightness Sun altitude
Rises 03:12:58 0° 191° (S) 3,415 ? -23.4°
Reaches altitude 10° 03:15:30 10° 185° (S) 2,502 ? -23.9°
Enters shadow 03:16:38 16° 180° (S) 2,114 ? -24.0°
